Showing default

QIANFAN-36, 61569

Orbit data source: Space-Track

QIANFAN-36, 61569 is a Chinese payload satellite in LEO that was launched on Tue, 15 Oct 2024 UTC via a CHANG ZHENG 6A launch vehicle from the Taiyaun Space Center, China (TSC). Payload-class satellites include a variety of spacecraft equipped with specific instruments for various scientific and technological missions. These include communications satellites like Starlink; space stations such as the ISS; scientific satellites like the Hubble; Earth observation satellites from companies like Planet Labs, Umbra, and HawkEye 360; GPS; miniature CubeSats for education and research; and military/defense satellites.

Loading next visibility...
Identifier
61569, 2024-185T
Orbit
LEO
Country
Flag of CNCN / PRC
Related business
Manufacturer
GESIH/SECM
Mission
Operational Commercial Communications
Bus & Motor
QIANFAN, Unknown motor
Mass
267 kg wet, ~267 kg dry
Launch date (UTC)
2024-10-15 (1 year ago)
Launch vehicle
CHANG ZHENG 6A
Launch site
Taiyaun Space Center, China (TSC)
Object type
Payload
Rocket body
Debris
Shape & HBR
Box + 1 Pan, 5.0 m
Radar Cross Section
13.200 m², Large (>1 m²)

Expand to show TLE details & history
Last TLE update: 8 hours ago

TLE from 8 hours ago
0 QIANFAN-36
1 61569U 24185T   25306.43957729  .00000211  00000-0  28582-3 0  9991
2 61569  88.9754  85.2372 0006992 147.4068 212.7519 13.55569633 62464
Epoch: 2025-11-02T10:32Z
TLE epoch observation values (Epoch: 2025-11-02T10:32:59.477Z)
Latitude
Longitude
-114.96591°
Altitude
1,059.168 km
Speed
7.32 km/s
True Right ascension
05h 40m 56s
True Declination
0° 00' 00"
Sunlit
Object was in full shadow at epoch
Visualization orbit readout
Latitude
Unknown
Longitude
Unknown
Altitude
Unknown
Speed
Unknown
Apparent Right ascension
Unknown
Apparent Declination
Unknown
Sunlit
N/A
Visualization observer readout
Local Sidereal Time
14:05:43
Azimuth
Unknown
Elevation
Unknown
Doppler factor
Unknown
Orbital elements
Apogee altitude
1,054.074 km
Perigee altitude
1,043.688 km
Semi-major axis
7,427.018 km
Eccentricity
0.0007
Inclination
88.9754°
RAAN
85.2372°
Arg. of periapsis
147.4068°
True anomaly
212.70859°
Mean anomaly
212.7519°
Eccentric anomaly
212.73024°
Mean motion
3.39095 °/min
Orbital period
106.16 mins
BSTAR
0.00028582
Loading maneuver chart data...
Computing Atmospheric mass density...
Loading historical data...
Loading historical data...
Loading historical data...
Loading historical data...
Loading historical data...
Loading historical data...
Loading historical data...

Documentation

Showing up to 5 results
|